Temperature
25 24 24 23 21 20 21 22 23 22 22 22 22 21 20 19 19 19 19 19 19 19 19 18 18 18 18 18 18 18 18 18 18 18 18 18 18 18 18 18 18 18 18 18 18 18 18 18 18
25 25 24 23 20 20 21 23 22 22 22 22 22 21 20 19 19 19 19 19 19 19 19 19 19 18 18 18 18 18 18 18 18 18 18 18 18 18 18 18 18 18 18 18 18 18 18 17 17
25 25 24 21 21 21 22 23 22 23 23 23 22 21 20 20 20 20 20 19 19 19 19 19 18 18 19 19 18 18 18 18 18 18 18 18 18 18 18 18 18 18 18 18 18 18 18 17 17
26 25 24 21 23 23 23 23 23 23 23 23 22 21 20 20 20 20 20 20 19 19 19 19 19 19 18 18 18 18 18 18 18 18 18 18 18 18 18 18 18 18 18 18 18 18 17 17 17
26 25 21 21 23 24 24 24 24 23 22 22 21 20 19 20 20 20 20 20 19 19 19 19 19 19 18 18 18 18 18 18 18 18 18 18 18 18 18 18 18 18 18 18 18 17 17 17 17
26 22 21 22 23 24 24 24 23 22 22 22 21 20 19 20 20 20 20 20 19 19 19 19 19 19 18 18 18 18 18 18 18 18 18 18 18 18 18 18 18 18 18 18 17 17 17 17 17
25 21 22 23 23 24 24 24 23 22 22 22 21 19 19 20 20 20 20 20 19 19 19 19 19 18 18 18 18 18 18 18 18 18 18 18 18 18 18 18 18 18 18 18 17 17 17 17 17
27 22 23 23 24 24 24 24 24 23 23 22 22 20 20 20 20 20 20 19 19 19 19 19 19 19 18 18 18 18 18 18 18 18 18 18 18 18 18 18 18 18 17 17 17 17 17 17 17
27 22 23 24 24 24 24 24 24 24 23 22 22 22 22 21 20 20 19 19 19 19 19 19 19 19 19 18 18 18 18 18 18 18 18 18 18 18 18 18 17 17 17 17 17 17 17 17 17
26 23 25 25 25 24 25 24 24 23 22 22 22 22 21 21 20 20 20 20 19 19 19 19 19 19 19 19 18 18 18 18 18 18 18 18 18 18 18 17 17 17 17 17 17 17 17 17 17
26 25 25 26 26 26 25 25 24 23 22 22 22 22 21 21 20 20 20 20 20 20 19 19 19 19 19 19 19 18 18 18 18 18 18 18 18 18 18 18 17 17 17 17 17 17 17 17 17
26 26 27 27 27 26 25 25 24 24 24 25 24 23 22 21 21 21 21 20 20 20 20 19 19 19 19 19 18 18 18 18 18 18 18 18 18 18 18 18 18 18 18 17 17 17 17 17 17
27 27 27 27 27 26 26 25 25 24 25 24 23 23 22 22 21 21 21 21 20 20 20 20 19 19 19 19 19 19 18 18 18 18 18 18 18 18 18 18 18 18 18 17 17 17 17 17 17
27 27 27 27 27 26 25 24 24 24 24 24 23 22 22 22 22 21 21 21 21 20 20 20 20 19 19 19 19 19 18 18 18 18 18 18 18 18 18 17 17 17 17 17 17 17 17 17 17
27 26 26 26 26 26 25 24 24 24 24 23 22 22 22 22 22 22 22 21 21 21 20 20 20 19 19 19 19 19 18 18 18 18 18 18 18 18 18 18 18 17 17 17 17 17 17 17 17
26 25 25 26 26 26 25 24 24 24 23 22 22 22 22 22 22 22 22 22 21 21 20 20 20 19 19 19 19 19 19 18 18 18 18 18 18 18 18 18 18 17 17 17 17 17 17 17 17
25 25 25 26 26 25 25 24 24 24 23 22 22 22 22 22 22 22 22 22 22 21 21 20 20 20 19 19 19 19 18 18 18 18 18 18 18 18 18 18 17 17 17 17 17 17 17 17 17
26 26 26 25 25 25 24 24 23 23 23 23 23 22 22 23 23 23 23 22 22 21 21 20 20 20 19 19 19 19 18 18 18 18 18 18 18 18 17 18 17 17 17 17 17 17 17 17 17
26 26 25 25 25 25 24 24 23 23 23 23 23 23 23 23 24 23 23 22 22 21 21 21 20 20 19 19 19 19 19 19 18 18 18 18 18 18 17 18 18 17 17 17 17 17 17 17 17
26 26 25 26 26 25 24 24 23 23 23 23 23 23 23 24 23 23 23 22 22 22 21 21 20 20 20 19 19 19 19 19 19 18 18 18 18 18 18 18 18 18 17 17 17 17 17 17 17
26 26 26 26 25 24 25 24 24 23 24 24 24 24 24 24 24 24 23 23 22 22 22 21 21 20 20 20 19 19 19 19 18 18 18 18 18 18 18 18 18 18 18 18 17 17 17 17 17
26 26 26 26 24 23 24 23 23 22 22 23 24 24 24 24 24 24 24 23 23 23 22 21 21 21 20 20 19 19 19 19 19 19 18 18 18 18 18 18 18 18 18 18 17 17 17 17 17
26 25 25 25 23 23 23 23 22 22 22 22 23 24 25 25 25 25 24 24 23 23 22 22 21 21 20 20 19 19 19 19 19 19 18 18 18 18 18 18 18 18 18 18 18 17 17 17 17
25 23 22 20 21 23 23 23 23 21 23 23 23 24 25 25 25 25 24 24 23 23 22 22 21 21 21 20 20 19 19 19 19 19 19 18 18 18 18 18 18 18 18 18 18 17 17 17 17
24 22 22 23 21 22 22 22 22 23 23 23 24 25 25 25 25 25 24 24 24 23 23 22 22 21 21 20 20 20 19 19 19 19 19 18 18 18 18 18 18 18 18 18 17 17 17 17 17
24 22 22 23 22 21 21 22 22 23 23 24 25 25 25 25 25 25 25 24 24 24 23 23 22 22 21 21 20 20 20 20 19 19 19 19 19 19 18 18 18 18 18 17 17 17 17 17 17
23 22 21 20 21 21 21 21 22 23 23 23 24 24 25 25 25 25 24 24 24 24 23 23 23 22 22 21 21 20 20 20 20 19 19 19 19 19 18 18 18 18 18 18 17 17 17 17 17
23 19 18 19 20 22 23 22 22 24 23 22 22 23 24 25 25 25 24 24 24 24 23 23 22 22 22 21 21 21 20 20 20 19 19 19 19 19 18 18 18 18 18 17 17 17 17 17 17
23 21 18 17 19 20 22 22 22 22 22 21 22 23 24 25 25 25 25 24 24 24 23 23 22 22 22 21 21 21 20 20 20 19 19 19 19 19 18 18 18 18 17 17 17 17 17 17 17
24 22 19 21 20 18 20 21 22 21 21 21 22 23 25 25 25 25 25 24 24 24 23 23 23 22 22 21 21 21 20 20 20 20 19 19 19 19 18 18 18 18 17 17 17 17 17 17 17
Wind_Speed
9 8 4 2 5 6 4 4 2 3 4 3 6 7 7 4 2 4 1 6 7 6 6 9 10 12 13 13 13 14 14 14 14 14 14 14 14 14 15 15 14 14 13 14 14 14 14 14 14
6 5 2 4 5 4 4 3 3 3 4 5 6 6 6 5 4 6 4 5 7 6 6 8 11 11 12 12 13 13 13 13 13 13 14 14 14 13 14 14 14 13 13 13 13 13 13 14 14
5 2 4 5 4 3 2 1 5 5 4 3 5 5 5 4 5 5 5 9 7 6 6 8 11 11 11 11 12 13 13 13 13 13 13 13 13 13 13 13 13 13 13 13 13 12 13 13 13
3 3 5 6 4 1 4 4 6 6 4 6 5 6 4 3 5 5 9 10 8 5 6 8 11 11 11 11 11 12 12 12 12 12 12 12 12 12 12 12 12 12 12 12 12 12 12 11 11
3 4 6 4 3 2 3 4 4 4 3 4 5 5 4 3 7 10 10 9 8 5 5 8 11 10 10 10 11 11 11 11 11 11 11 11 11 11 12 11 11 10 11 11 11 11 10 10 10
4 5 5 2 2 3 3 3 4 6 5 5 5 5 3 3 8 9 8 7 6 5 5 6 10 10 9 9 10 10 10 10 10 10 10 10 10 10 10 10 10 9 10 10 10 10 10 9 9
5 5 4 4 2 2 3 3 4 6 5 4 5 5 2 2 5 8 7 7 5 4 4 4 6 8 8 8 9 9 9 9 8 9 9 9 9 9 9 8 9 9 9 9 9 9 9 8 8
5 5 4 2 3 2 4 4 4 6 5 5 5 7 5 5 8 9 8 6 5 4 3 2 4 5 5 6 7 8 8 8 8 8 8 8 8 8 8 7 8 8 8 8 8 8 8 8 7
4 5 3 5 6 4 5 5 4 3 6 3 3 5 6 13 12 10 7 5 4 4 2 2 3 4 4 4 5 6 7 7 7 6 7 6 5 5 5 7 7 7 7 7 7 7 7 7 6
5 4 6 6 6 7 7 6 6 5 5 2 5 7 12 14 12 11 9 8 7 7 5 3 3 3 3 3 4 4 4 5 5 5 5 5 5 4 4 5 6 6 6 6 6 5 5 5 5
4 6 4 3 5 8 7 6 5 9 4 6 9 13 15 13 11 10 10 9 8 7 6 5 4 4 3 2 4 3 3 4 4 4 4 4 4 4 3 3 3 3 4 4 4 4 4 4 3
3 1 3 4 6 7 8 7 5 6 7 8 13 16 16 14 13 12 11 10 7 7 7 5 4 4 4 4 3 3 3 3 2 3 4 4 3 2 2 2 2 2 2 3 3 3 3 3 2
2 2 2 5 7 7 7 5 5 4 4 10 13 14 15 14 11 9 8 8 7 8 7 6 6 5 4 4 3 4 3 3 4 4 4 5 3 2 2 1 1 1 2 2 2 2 2 1 1
1 4 4 5 5 4 6 3 3 4 9 12 13 13 13 13 12 9 8 8 8 9 8 7 7 6 5 4 3 3 4 4 4 4 5 6 5 3 2 1 1 1 2 2 2 1 1 1 1
4 6 5 2 4 4 6 1 4 6 12 12 13 12 12 11 11 11 12 10 10 8 8 7 7 6 6 5 5 4 5 5 4 4 5 6 6 5 3 2 1 2 2 2 1 1 1 0 1
5 6 2 2 3 4 7 5 6 8 12 12 11 11 11 10 11 10 10 9 8 7 7 7 7 7 6 5 4 3 4 4 4 5 5 6 6 6 4 3 2 3 3 2 1 1 1 0 1
5 2 3 3 4 4 5 6 5 9 11 11 11 11 10 9 9 9 10 10 9 9 8 7 6 7 6 5 3 3 3 3 3 4 5 6 7 7 5 3 3 3 3 2 2 2 2 1 1
3 3 3 5 4 5 5 5 4 10 12 11 10 9 9 11 12 9 9 9 9 8 8 8 6 6 6 4 3 2 2 2 2 3 4 6 6 7 6 4 4 4 2 2 2 2 2 2 1
5 4 5 5 5 6 7 6 6 9 10 10 10 10 11 12 8 7 8 9 9 8 8 8 7 7 6 4 3 3 2 2 2 3 4 6 6 6 5 3 3 3 3 3 3 2 2 1 2
4 2 3 2 1 4 4 4 4 8 11 11 12 12 12 10 7 8 9 9 10 10 9 8 8 8 7 5 4 3 2 2 2 2 2 5 6 6 5 4 4 4 3 3 3 3 2 2 2
3 5 5 4 2 4 3 4 3 4 6 7 8 9 10 12 12 11 11 10 10 11 11 10 9 8 8 6 4 3 2 2 1 2 2 3 5 6 5 5 5 4 4 4 4 5 4 3 2
4 5 6 5 5 1 2 3 7 4 5 8 10 10 11 11 10 10 11 11 12 12 10 9 9 8 7 7 6 6 5 4 4 3 3 2 4 5 5 5 5 5 4 4 5 4 4 4 3
4 2 4 4 5 3 2 2 8 2 6 10 11 12 12 11 12 12 13 12 10 9 9 8 8 7 7 8 8 7 5 4 2 2 3 3 2 3 5 5 5 4 4 5 5 4 4 4 4
6 8 8 7 5 1 3 4 7 5 8 7 9 10 10 11 11 10 9 8 8 8 8 8 8 7 7 8 8 8 7 5 4 4 3 3 2 2 3 4 4 4 4 5 5 5 5 4 4
6 7 4 4 4 5 3 3 9 8 8 9 10 10 9 10 10 10 10 10 10 10 9 9 9 8 7 8 7 7 7 7 7 5 4 3 2 2 3 3 3 3 4 4 4 4 4 4 5
5 9 8 6 6 5 2 6 9 7 6 6 6 5 7 9 9 10 11 11 11 11 10 10 10 8 8 8 7 6 6 5 5 5 5 5 4 4 3 4 4 4 4 4 4 3 4 4 4
7 4 7 8 4 1 5 7 9 4 3 0 3 5 8 9 9 9 9 9 10 10 11 11 10 9 8 8 7 6 7 6 6 5 4 4 3 3 4 4 4 4 3 4 4 3 3 3 3
5 9 7 7 7 3 5 5 5 6 5 2 3 5 7 7 7 7 8 9 9 9 9 9 9 9 8 8 7 7 7 7 6 5 6 5 5 4 4 4 4 4 3 3 3 3 3 3 3
4 5 6 5 6 7 4 7 6 8 6 5 6 6 7 8 8 8 7 7 8 7 8 8 9 8 7 8 7 6 6 6 6 6 6 6 5 5 5 5 4 4 3 3 3 3 3 3 2
3 6 7 5 4 5 5 7 5 4 4 4 4 4 5 6 7 7 7 7 7 8 8 9 9 9 8 8 7 7 6 6 6 6 6 5 5 5 5 4 4 4 3 3 3 3 3 3 3
Wind_Direction
148 141 141 102 54 47 25 357 44 59 52 55 79 85 91 75 101 135 135 134 129 130 134 130 125 119 116 116 115 114 114 115 117 119 118 122 123 124 123 123 122 122 122 123 123 124 125 124 122
144 146 109 62 73 58 356 348 64 80 130 121 79 73 72 65 71 112 132 141 127 128 127 129 126 120 118 119 120 121 120 120 120 119 118 120 123 124 123 122 121 123 122 121 122 125 126 125 123
151 135 81 69 82 135 158 116 114 106 102 76 76 63 72 97 121 143 158 137 121 122 128 137 129 126 121 119 125 125 124 123 122 121 121 121 121 122 124 121 120 121 122 122 124 126 125 125 124
125 58 56 65 57 202 169 161 139 118 63 52 84 69 63 90 139 142 135 133 127 124 136 142 133 129 126 123 124 127 126 126 125 125 126 125 125 125 125 124 121 121 123 124 125 126 124 125 126
70 75 60 51 23 29 113 139 128 101 73 62 77 79 50 38 104 121 131 135 135 135 141 145 137 135 132 130 128 127 128 128 128 128 128 126 126 128 128 126 124 124 125 125 124 125 126 124 124
64 69 77 74 41 55 101 114 104 92 90 82 83 87 48 94 119 133 131 128 132 132 134 144 143 142 141 138 135 133 132 131 131 132 131 129 129 130 130 129 127 126 125 123 122 123 123 124 123
104 92 114 130 111 110 155 112 120 121 112 115 114 96 79 133 132 125 115 110 112 115 115 127 141 146 146 144 142 139 136 133 132 133 134 134 133 132 131 132 133 131 129 127 127 127 124 121 120
127 99 87 125 144 179 151 116 121 126 117 125 120 135 175 175 131 112 103 101 108 111 110 114 122 126 134 145 148 144 140 136 135 136 136 136 136 135 136 139 138 136 133 131 131 130 127 123 120
98 80 156 188 172 172 153 130 142 105 116 132 129 154 160 137 130 123 120 120 140 159 145 133 125 127 135 148 153 145 140 135 131 131 132 122 108 113 125 138 142 144 141 138 131 129 129 121 114
95 132 206 197 173 154 154 144 148 117 126 116 87 99 126 139 148 154 161 169 178 185 187 174 158 152 152 155 125 115 113 115 113 108 104 103 104 112 117 131 143 144 143 136 129 125 117 108 100
133 170 196 163 147 136 139 140 137 133 173 189 162 148 148 154 163 171 178 182 188 185 187 184 178 171 166 148 130 122 118 120 123 125 120 118 107 99 95 89 90 98 108 97 95 91 94 101 108
123 172 149 147 129 136 147 145 138 172 204 175 158 153 157 166 177 183 185 187 182 178 190 189 179 174 178 166 154 151 146 144 152 158 148 134 120 111 112 101 81 78 86 85 87 95 92 92 99
91 115 110 119 118 134 133 146 152 190 146 133 141 153 167 177 185 188 186 182 179 185 190 189 183 183 177 169 175 169 171 174 180 178 173 168 161 154 149 135 117 120 123 117 107 102 97 89 81
89 94 103 103 105 126 132 130 123 185 142 143 155 169 180 184 184 179 180 185 189 191 189 183 186 187 177 180 183 174 179 179 181 188 192 188 185 179 169 166 167 174 165 158 138 132 114 115 124
78 78 58 93 122 135 116 75 222 175 149 159 172 180 187 192 187 189 190 190 191 190 185 183 186 182 182 186 189 180 177 177 184 194 203 201 197 189 178 174 187 205 182 162 150 136 108 125 124
55 72 92 243 139 140 133 226 237 162 160 175 183 187 193 200 200 197 190 187 183 180 182 186 187 179 183 183 180 171 175 177 188 194 202 208 202 194 178 176 197 193 171 164 157 147 118 80 125
40 119 220 245 181 155 167 226 222 167 172 187 192 194 197 204 209 201 190 185 181 182 181 183 183 176 178 175 164 156 165 185 197 198 201 205 202 196 186 187 192 178 166 170 177 154 154 172 183
215 215 227 224 208 161 191 232 206 179 184 196 198 198 200 207 212 198 188 183 179 178 178 182 181 173 162 151 135 125 142 180 194 199 209 205 203 198 189 190 191 177 168 178 169 164 156 170 173
181 191 228 241 201 169 202 228 216 191 194 201 203 202 208 217 207 186 184 177 172 175 179 184 182 176 162 157 163 164 187 190 197 211 215 207 201 196 187 191 183 180 185 192 176 162 162 174 149
172 193 238 300 127 157 194 254 236 198 205 207 205 206 210 209 191 186 183 179 182 186 188 188 190 184 181 180 172 167 162 178 194 211 216 214 203 200 198 189 191 189 185 184 181 167 163 186 173
207 194 202 189 77 53 95 326 260 230 219 225 219 211 209 206 199 191 187 187 187 193 194 195 194 190 187 176 146 121 98 87 145 213 221 221 208 205 199 192 190 191 187 196 197 184 179 194 202
245 228 180 156 118 334 96 265 281 243 242 232 225 213 211 208 198 190 188 190 196 200 194 192 189 188 186 173 172 172 178 191 207 201 209 225 216 208 205 198 194 196 195 201 207 197 191 183 205
202 74 111 113 119 71 41 148 286 287 248 244 230 219 213 202 195 192 192 194 197 191 187 187 182 184 183 181 183 184 192 196 191 183 200 223 228 216 210 202 196 203 206 207 205 198 197 195 200
128 74 57 50 73 113 227 172 274 238 224 237 228 218 209 199 194 191 186 179 183 179 180 180 179 188 185 186 186 190 194 190 188 197 205 222 228 226 214 208 202 203 207 212 211 207 205 206 206
98 92 44 12 17 248 257 200 248 252 235 226 223 218 202 189 184 181 178 179 182 181 183 182 182 191 189 188 193 195 196 192 198 202 203 209 219 222 220 213 210 209 213 211 204 208 216 214 211
164 141 158 188 209 261 289 229 254 269 265 239 222 198 176 178 183 186 187 184 184 184 183 183 186 192 188 190 197 196 193 194 201 199 199 207 215 220 214 206 211 213 209 207 199 210 218 216 217
134 157 156 134 144 171 279 285 301 314 336 180 165 160 176 183 183 186 184 183 184 185 187 187 187 191 191 193 192 194 195 198 202 198 198 208 214 217 205 201 206 215 209 198 192 207 217 215 217
133 139 103 122 145 215 283 279 260 281 272 254 189 186 187 178 178 183 182 183 186 187 186 181 185 194 196 193 194 200 200 203 201 193 203 209 212 209 200 204 204 208 209 201 195 200 207 204 219
104 95 103 112 145 156 219 267 237 238 240 227 217 200 187 180 181 182 182 182 180 176 177 181 188 192 196 198 198 197 199 200 197 201 210 210 208 201 200 204 199 204 212 208 197 207 197 195 207
142 150 143 145 191 168 172 257 290 261 254 228 222 205 182 179 179 172 171 167 168 175 183 188 192 196 201 198 193 198 199 196 201 210 212 204 205 203 200 196 196 205 208 199 194 198 191 191 199
Height
1485 1485 1486 1489 1493 1506 1511 1504 1499 1499 1500 1501 1501 1502 1504 1508 1511 1517 1514 1514 1515 1516 1517 1517 1518 1519 1520 1521 1522 1523 1524 1525 1526 1527 1528 1529 1531 1532 1533 1535 1536 1538 1539 1541 1543 1544 1546 1547 1548
1485 1486 1489 1490 1504 1521 1515 1503 1502 1501 1501 1501 1502 1504 1506 1508 1510 1512 1513 1515 1517 1518 1519 1519 1520 1521 1522 1523 1524 1525 1526 1527 1528 1529 1530 1531 1532 1534 1535 1536 1538 1540 1541 1543 1544 1546 1547 1549 1550
1487 1488 1491 1495 1509 1518 1513 1504 1502 1502 1503 1503 1505 1506 1509 1511 1512 1513 1515 1516 1518 1519 1521 1521 1522 1524 1525 1525 1525 1527 1528 1529 1530 1531 1532 1533 1534 1535 1537 1538 1540 1541 1543 1544 1546 1547 1549 1550 1552
1488 1491 1493 1503 1510 1506 1504 1503 1502 1503 1504 1505 1506 1509 1512 1514 1514 1515 1516 1518 1520 1521 1523 1524 1525 1526 1527 1527 1528 1529 1530 1531 1532 1533 1534 1535 1537 1538 1539 1540 1542 1543 1545 1546 1548 1549 1550 1552 1553
1489 1492 1502 1512 1509 1503 1501 1503 1504 1504 1505 1507 1508 1512 1515 1516 1517 1517 1518 1520 1522 1523 1525 1526 1527 1528 1529 1530 1531 1531 1532 1533 1534 1535 1536 1538 1539 1540 1541 1542 1544 1545 1547 1548 1549 1551 1552 1553 1555
1491 1494 1513 1519 1510 1504 1503 1504 1505 1506 1508 1509 1511 1513 1517 1518 1519 1520 1521 1522 1524 1525 1527 1528 1529 1530 1531 1532 1533 1534 1534 1535 1536 1537 1538 1539 1541 1542 1543 1544 1546 1547 1548 1550 1551 1552 1554 1555 1556
1493 1501 1512 1513 1512 1508 1506 1506 1507 1508 1509 1511 1512 1515 1518 1519 1521 1522 1523 1525 1526 1527 1528 1530 1531 1532 1532 1533 1535 1536 1536 1537 1538 1539 1540 1541 1542 1544 1545 1546 1547 1548 1550 1551 1553 1554 1555 1556 1558
1492 1500 1510 1512 1512 1509 1506 1507 1508 1509 1511 1513 1514 1515 1518 1520 1522 1523 1525 1526 1528 1529 1530 1531 1532 1533 1534 1535 1536 1537 1538 1539 1540 1541 1542 1543 1544 1545 1546 1547 1548 1550 1551 1553 1554 1555 1557 1558 1559
1493 1504 1513 1510 1509 1506 1505 1507 1509 1511 1512 1514 1515 1516 1517 1520 1522 1524 1526 1527 1529 1530 1532 1533 1534 1535 1536 1537 1538 1539 1540 1541 1542 1543 1544 1544 1545 1546 1547 1549 1550 1551 1552 1554 1555 1557 1558 1559 1560
1493 1507 1504 1499 1499 1501 1504 1506 1508 1511 1513 1514 1515 1516 1519 1520 1523 1524 1526 1527 1529 1531 1532 1534 1535 1536 1537 1538 1540 1541 1542 1542 1543 1544 1545 1546 1547 1548 1548 1550 1551 1552 1554 1555 1557 1558 1559 1561 1562
1492 1498 1495 1496 1497 1500 1504 1506 1508 1510 1513 1513 1513 1516 1518 1521 1523 1525 1526 1528 1530 1532 1533 1535 1536 1538 1539 1540 1541 1542 1543 1544 1545 1546 1547 1547 1548 1549 1550 1551 1552 1554 1555 1556 1558 1559 1561 1562 1563
1492 1493 1493 1495 1498 1501 1504 1506 1509 1510 1510 1511 1513 1516 1518 1521 1523 1525 1527 1529 1531 1533 1534 1536 1537 1539 1540 1541 1542 1543 1544 1545 1546 1547 1548 1549 1550 1551 1552 1553 1554 1555 1556 1557 1559 1560 1562 1563 1564
1492 1494 1494 1496 1498 1501 1504 1506 1508 1510 1510 1512 1515 1518 1519 1521 1523 1526 1528 1530 1532 1533 1535 1537 1538 1539 1541 1542 1543 1544 1546 1547 1547 1548 1549 1550 1551 1552 1553 1554 1555 1556 1557 1558 1560 1561 1562 1563 1564
1493 1494 1496 1498 1500 1503 1506 1508 1509 1510 1511 1513 1515 1518 1520 1521 1523 1526 1528 1529 1531 1533 1535 1537 1538 1540 1541 1543 1544 1545 1547 1548 1548 1549 1550 1551 1552 1553 1554 1555 1556 1557 1558 1559 1560 1561 1563 1563 1564
1494 1497 1500 1501 1502 1504 1507 1511 1508 1508 1511 1513 1515 1518 1520 1522 1523 1525 1527 1529 1531 1533 1535 1537 1538 1540 1541 1543 1544 1546 1547 1548 1549 1550 1551 1552 1553 1554 1555 1556 1557 1558 1559 1560 1561 1561 1563 1563 1564
1497 1505 1511 1504 1503 1504 1510 1517 1507 1508 1510 1513 1515 1517 1519 1521 1523 1525 1527 1529 1531 1534 1535 1537 1538 1540 1542 1543 1544 1546 1547 1548 1549 1550 1551 1552 1553 1554 1555 1556 1557 1558 1559 1560 1561 1561 1562 1563 1564
1509 1516 1514 1507 1502 1504 1508 1512 1505 1507 1509 1512 1514 1516 1518 1520 1522 1524 1526 1529 1531 1533 1535 1537 1538 1540 1542 1543 1544 1546 1547 1548 1549 1550 1551 1552 1553 1554 1555 1556 1557 1558 1559 1560 1560 1561 1562 1563 1563
1515 1514 1512 1510 1502 1504 1508 1508 1504 1505 1508 1510 1512 1515 1517 1518 1519 1522 1525 1528 1530 1532 1534 1536 1538 1540 1541 1543 1544 1545 1547 1548 1549 1550 1551 1552 1553 1553 1554 1555 1556 1557 1558 1559 1560 1561 1561 1562 1562
1502 1508 1511 1506 1499 1503 1507 1506 1504 1504 1507 1508 1510 1512 1514 1515 1518 1521 1524 1526 1529 1531 1533 1535 1537 1539 1540 1542 1543 1544 1545 1547 1548 1549 1550 1551 1552 1553 1553 1554 1555 1556 1557 1558 1559 1560 1560 1561 1561
1501 1507 1508 1503 1498 1502 1507 1507 1503 1502 1503 1504 1506 1508 1510 1513 1516 1519 1522 1524 1526 1529 1531 1533 1535 1537 1539 1541 1542 1544 1545 1546 1547 1548 1549 1550 1551 1552 1552 1553 1554 1555 1556 1556 1557 1558 1559 1559 1560
1500 1504 1504 1505 1502 1503 1507 1511 1506 1502 1502 1503 1504 1506 1507 1510 1512 1515 1518 1521 1524 1527 1529 1531 1534 1536 1538 1540 1541 1542 1544 1545 1546 1547 1548 1549 1550 1550 1551 1552 1553 1553 1554 1555 1556 1556 1557 1557 1558
1503 1493 1496 1501 1510 1520 1514 1529 1511 1504 1502 1500 1500 1502 1503 1506 1509 1512 1515 1518 1521 1524 1527 1530 1532 1534 1536 1538 1540 1541 1542 1543 1544 1546 1547 1548 1548 1549 1550 1550 1551 1552 1553 1553 1554 1554 1555 1555 1555
1494 1491 1496 1502 1512 1522 1519 1528 1518 1505 1504 1498 1495 1496 1498 1502 1505 1508 1512 1515 1519 1522 1525 1528 1530 1532 1534 1536 1538 1539 1540 1542 1543 1544 1545 1546 1547 1547 1548 1549 1550 1550 1550 1551 1551 1552 1552 1553 1553
1489 1497 1505 1514 1521 1534 1523 1528 1524 1508 1499 1493 1490 1492 1494 1498 1502 1505 1509 1513 1517 1520 1523 1525 1527 1530 1532 1534 1535 1537 1538 1540 1541 1542 1543 1544 1545 1546 1546 1547 1548 1548 1548 1549 1549 1549 1550 1550 1550
1492 1511 1533 1534 1543 1539 1523 1525 1519 1494 1489 1487 1486 1488 1491 1495 1499 1502 1506 1509 1513 1516 1520 1522 1525 1527 1529 1531 1533 1534 1536 1538 1539 1540 1541 1542 1543 1544 1544 1545 1546 1546 1546 1546 1547 1547 1547 1547 1547
1494 1505 1531 1542 1545 1538 1525 1526 1505 1487 1484 1483 1484 1486 1489 1492 1496 1499 1503 1506 1510 1514 1517 1520 1522 1524 1527 1529 1531 1533 1534 1535 1537 1538 1539 1540 1541 1541 1542 1543 1543 1544 1544 1544 1544 1544 1544 1544 1545
1496 1504 1506 1526 1533 1538 1531 1517 1498 1485 1484 1483 1483 1485 1487 1490 1494 1497 1500 1504 1508 1511 1514 1517 1520 1522 1525 1527 1529 1530 1532 1533 1534 1536 1537 1538 1539 1540 1540 1541 1541 1541 1541 1541 1542 1541 1542 1542 1542
1486 1498 1514 1527 1541 1543 1530 1521 1513 1493 1488 1484 1484 1484 1485 1489 1492 1495 1498 1502 1505 1509 1512 1515 1518 1520 1523 1525 1526 1528 1530 1531 1533 1534 1534 1536 1537 1537 1538 1538 1539 1539 1539 1539 1539 1539 1539 1539 1538
1492 1500 1512 1525 1526 1539 1540 1525 1494 1490 1486 1484 1482 1483 1484 1487 1490 1493 1496 1500 1503 1507 1510 1513 1516 1518 1520 1522 1524 1526 1527 1529 1530 1531 1532 1533 1534 1535 1535 1536 1536 1536 1537 1536 1536 1536 1536 1536 1536
1484 1493 1505 1517 1525 1530 1532 1520 1485 1484 1483 1482 1481 1482 1483 1486 1489 1492 1495 1498 1502 1504 1507 1511 1513 1515 1518 1520 1521 1523 1525 1526 1528 1529 1530 1531 1532 1532 1533 1533 1534 1534 1534 1534 1534 1533 1533 1533 1533